Time,TemperatureF,DewpointF,PressureIn,WindDirection,WindDirectionDegrees,WindSpeedMPH,WindSpeedGustMPH,Humidity,HourlyPrecipIn,Conditions,Clouds,dailyrainin,SoftwareType,DateUTC
2013-04-23 00:01:00,44.8,37.7,30.60,ENE,68,2.5,5.1,76,0.00,,,0.00,WUHU216HW,2013-04-23 04:01:00,
2013-04-23 00:06:00,44.8,37.4,30.60,ESE,113,2.7,8.7,75,0.00,,,0.00,WUHU216HW,2013-04-23 04:06:00,
2013-04-23 00:11:00,45.0,37.5,30.60,ESE,113,2.7,7.6,75,0.00,,,0.00,WUHU216HW,2013-04-23 04:11:00,
2013-04-23 00:16:00,44.8,37.7,30.59,NNE,23,4.7,12.1,76,0.00,,,0.00,WUHU216HW,2013-04-23 04:16:00,
2013-04-23 00:22:00,44.8,37.7,30.59,NNE,23,8.7,12.1,76,0.00,,,0.00,WUHU216HW,2013-04-23 04:22:00,
2013-04-23 00:26:00,44.8,37.7,30.59,SSE,158,4.7,8.7,76,0.00,,,0.00,WUHU216HW,2013-04-23 04:26:00,
2013-04-23 00:31:00,44.8,37.4,30.59,NNE,23,4.7,8.7,75,0.00,,,0.00,WUHU216HW,2013-04-23 04:31:00,
2013-04-23 00:36:00,44.8,37.4,30.59,WSW,248,3.8,6.3,75,0.00,,,0.00,WUHU216HW,2013-04-23 04:36:00,
2013-04-23 00:42:00,44.8,37.4,30.58,ESE,113,2.7,12.8,75,0.00,,,0.00,WUHU216HW,2013-04-23 04:42:00,
2013-04-23 00:47:00,44.6,37.2,30.58,ESE,113,4.5,12.8,75,0.00,,,0.00,WUHU216HW,2013-04-23 04:47:00,
2013-04-23 00:52:00,44.6,37.2,30.58,ESE,113,2.0,8.1,75,0.00,,,0.00,WUHU216HW,2013-04-23 04:52:00,
2013-04-23 00:57:00,44.6,37.2,30.58,NE,45,5.6,8.9,75,0.00,,,0.00,WUHU216HW,2013-04-23 04:57:00,
2013-04-23 01:02:00,44.5,37.0,30.58,East,90,9.8,10.7,75,0.00,,,0.00,WUHU216HW,2013-04-23 05:02:00,
2013-04-23 01:07:00,44.5,37.0,30.57,ENE,68,8.9,10.7,75,0.00,,,0.00,WUHU216HW,2013-04-23 05:07:00,
2013-04-23 01:12:00,44.3,36.8,30.57,ENE,68,4.7,9.8,75,0.00,,,0.00,WUHU216HW,2013-04-23 05:12:00,
2013-04-23 01:17:00,44.3,36.8,30.57,North,0,2.9,8.9,75,0.00,,,0.00,WUHU216HW,2013-04-23 05:17:00,
2013-04-23 01:22:00,44.3,36.8,30.57,East,90,1.8,6.3,75,0.00,,,0.00,WUHU216HW,2013-04-23 05:22:00,
2013-04-23 01:27:00,44.3,36.8,30.57,NE,45,8.3,8.3,75,0.00,,,0.00,WUHU216HW,2013-04-23 05:27:00,
2013-04-23 01:32:00,44.3,36.8,30.57,ENE,68,3.1,9.2,75,0.00,,,0.00,WUHU216HW,2013-04-23 05:32:00,
2013-04-23 01:37:00,44.3,36.8,30.57,NNE,23,8.7,9.8,75,0.00,,,0.00,WUHU216HW,2013-04-23 05:37:00,
2013-04-23 01:42:00,44.3,36.8,30.57,ENE,68,2.2,9.8,75,0.00,,,0.00,WUHU216HW,2013-04-23 05:42:00,
2013-04-23 01:47:00,44.3,36.8,30.56,ENE,68,9.8,9.8,75,0.00,,,0.00,WUHU216HW,2013-04-23 05:47:00,
2013-04-23 01:52:00,44.3,36.8,30.56,NE,45,3.8,12.1,75,0.00,,,0.00,WUHU216HW,2013-04-23 05:52:00,
2013-04-23 01:57:00,44.3,36.8,30.56,NNE,23,5.6,12.1,75,0.00,,,0.00,WUHU216HW,2013-04-23 05:57:00,
2013-04-23 02:02:00,44.1,36.6,30.56,NE,45,7.6,11.4,75,0.00,,,0.00,WUHU216HW,2013-04-23 06:02:00,
2013-04-23 02:07:00,44.1,36.6,30.56,ENE,68,2.9,11.4,75,0.00,,,0.00,WUHU216HW,2013-04-23 06:07:00,
2013-04-23 02:12:00,44.1,37.0,30.55,North,0,6.9,6.9,76,0.00,,,0.00,WUHU216HW,2013-04-23 06:12:00,
2013-04-23 02:17:00,44.1,36.6,30.55,ENE,68,9.4,9.4,75,0.00,,,0.00,WUHU216HW,2013-04-23 06:17:00,
2013-04-23 02:22:00,44.1,36.6,30.54,NNE,23,6.5,9.4,75,0.00,,,0.00,WUHU216HW,2013-04-23 06:22:00,
2013-04-23 02:27:00,44.1,36.6,30.54,East,90,7.4,9.8,75,0.00,,,0.00,WUHU216HW,2013-04-23 06:27:00,
2013-04-23 02:32:00,44.1,36.6,30.54,ESE,113,4.7,9.8,75,0.00,,,0.00,WUHU216HW,2013-04-23 06:32:00,
2013-04-23 02:37:00,43.9,36.5,30.54,NNE,23,9.4,9.4,75,0.00,,,0.00,WUHU216HW,2013-04-23 06:37:00,
2013-04-23 02:42:00,43.9,36.5,30.53,NNE,23,9.6,11.6,75,0.00,,,0.00,WUHU216HW,2013-04-23 06:42:00,
2013-04-23 02:47:00,43.9,36.5,30.53,NE,45,3.4,11.6,75,0.00,,,0.00,WUHU216HW,2013-04-23 06:47:00,
2013-04-23 02:52:00,43.9,36.5,30.53,ESE,113,3.4,14.3,75,0.00,,,0.00,WUHU216HW,2013-04-23 06:52:00,
2013-04-23 02:57:00,43.7,36.3,30.52,ENE,68,5.4,14.3,75,0.00,,,0.00,WUHU216HW,2013-04-23 06:57:00,
2013-04-23 03:02:00,43.7,36.3,30.52,ENE,68,8.1,8.9,75,0.00,,,0.00,WUHU216HW,2013-04-23 07:02:00,
2013-04-23 03:07:00,43.7,36.3,30.53,ENE,68,7.6,8.9,75,0.00,,,0.00,WUHU216HW,2013-04-23 07:07:00,
2013-04-23 03:12:00,43.7,36.3,30.53,North,0,4.7,8.1,75,0.00,,,0.00,WUHU216HW,2013-04-23 07:12:00,
2013-04-23 03:17:00,43.7,36.6,30.52,ENE,68,7.8,11.4,76,0.00,,,0.00,WUHU216HW,2013-04-23 07:17:00,
2013-04-23 03:22:00,43.7,36.6,30.52,NE,45,5.6,11.4,76,0.00,,,0.00,WUHU216HW,2013-04-23 07:22:00,
2013-04-23 03:27:00,43.9,36.5,30.52,North,0,3.8,10.5,75,0.00,,,0.00,WUHU216HW,2013-04-23 07:27:00,
2013-04-23 03:32:00,43.9,36.8,30.51,East,90,2.0,6.9,76,0.00,,,0.00,WUHU216HW,2013-04-23 07:32:00,
2013-04-23 03:37:00,43.9,36.8,30.51,ENE,68,6.3,10.1,76,0.00,,,0.00,WUHU216HW,2013-04-23 07:37:00,
2013-04-23 03:42:00,43.9,36.8,30.51,NNE,23,5.6,12.3,76,0.00,,,0.00,WUHU216HW,2013-04-23 07:42:00,
2013-04-23 03:47:00,43.9,36.8,30.51,NE,45,5.8,12.3,76,0.00,,,0.00,WUHU216HW,2013-04-23 07:47:00,
2013-04-23 03:52:00,43.9,36.8,30.50,ESE,113,2.9,7.2,76,0.00,,,0.00,WUHU216HW,2013-04-23 07:52:00,
2013-04-23 03:57:00,43.9,37.2,30.51,ENE,68,11.0,11.0,77,0.00,,,0.00,WUHU216HW,2013-04-23 07:57:00,
2013-04-23 04:02:00,44.1,37.4,30.51,NE,45,7.2,11.0,77,0.00,,,0.00,WUHU216HW,2013-04-23 08:02:00,
2013-04-23 04:07:00,43.9,37.2,30.51,ENE,68,12.1,12.1,77,0.00,,,0.00,WUHU216HW,2013-04-23 08:07:00,
2013-04-23 04:12:00,43.9,37.2,30.50,East,90,3.6,12.1,77,0.00,,,0.00,WUHU216HW,2013-04-23 08:12:00,
2013-04-23 04:17:00,43.9,37.2,30.50,NE,45,6.3,8.5,77,0.00,,,0.00,WUHU216HW,2013-04-23 08:17:00,
2013-04-23 04:22:00,44.1,37.4,30.50,NNE,23,10.1,11.4,77,0.00,,,0.00,WUHU216HW,2013-04-23 08:22:00,
2013-04-23 04:27:00,44.1,37.4,30.50,ESE,113,3.8,11.4,77,0.00,,,0.00,WUHU216HW,2013-04-23 08:27:00,
2013-04-23 04:32:00,44.1,37.4,30.50,NNE,23,4.3,11.0,77,0.00,,,0.00,WUHU216HW,2013-04-23 08:32:00,
2013-04-23 04:37:00,44.1,37.4,30.50,ENE,68,8.5,11.4,77,0.00,,,0.00,WUHU216HW,2013-04-23 08:37:00,
2013-04-23 04:42:00,44.1,37.4,30.50,NNW,338,4.9,11.4,77,0.00,,,0.00,WUHU216HW,2013-04-23 08:42:00,
2013-04-23 04:47:00,44.1,37.7,30.49,NE,45,6.5,9.2,78,0.00,,,0.00,WUHU216HW,2013-04-23 08:47:00,
2013-04-23 04:52:00,44.1,37.4,30.49,NNE,23,5.8,9.2,77,0.00,,,0.00,WUHU216HW,2013-04-23 08:52:00,
2013-04-23 04:57:00,44.1,37.4,30.49,East,90,2.0,9.2,77,0.00,,,0.00,WUHU216HW,2013-04-23 08:57:00,
2013-04-23 05:02:00,44.1,37.4,30.49,SE,135,5.8,6.0,77,0.00,,,0.00,WUHU216HW,2013-04-23 09:02:00,
2013-04-23 05:07:00,44.1,37.4,30.49,ENE,68,17.2,17.2,77,0.00,,,0.00,WUHU216HW,2013-04-23 09:07:00,
2013-04-23 05:12:00,44.1,37.4,30.49,NE,45,4.7,17.2,77,0.00,,,0.00,WUHU216HW,2013-04-23 09:12:00,
2013-04-23 05:17:00,44.3,37.5,30.49,NE,45,4.0,6.9,77,0.00,,,0.00,WUHU216HW,2013-04-23 09:17:00,
2013-04-23 05:22:00,44.3,37.5,30.48,North,0,9.2,9.2,77,0.00,,,0.00,WUHU216HW,2013-04-23 09:22:00,
2013-04-23 05:27:00,44.3,37.8,30.48,NNE,23,6.3,9.2,78,0.00,,,0.00,WUHU216HW,2013-04-23 09:27:00,
2013-04-23 05:32:00,44.1,37.7,30.49,NNW,338,6.7,6.9,78,0.00,,,0.00,WUHU216HW,2013-04-23 09:32:00,
2013-04-23 05:37:00,44.1,37.7,30.48,East,90,7.2,9.8,78,0.00,,,0.00,WUHU216HW,2013-04-23 09:37:00,
2013-04-23 05:42:00,44.1,37.7,30.48,ENE,68,7.2,9.8,78,0.00,,,0.00,WUHU216HW,2013-04-23 09:42:00,
2013-04-23 05:47:00,43.9,37.5,30.48,North,0,6.3,10.5,78,0.00,,,0.00,WUHU216HW,2013-04-23 09:47:00,
2013-04-23 05:52:00,43.9,37.5,30.48,NNE,23,4.7,10.5,78,0.00,,,0.00,WUHU216HW,2013-04-23 09:52:00,
2013-04-23 05:57:00,43.9,37.5,30.48,ENE,68,8.5,8.7,78,0.00,,,0.00,WUHU216HW,2013-04-23 09:57:00,
2013-04-23 06:02:00,43.9,37.8,30.48,SE,135,2.2,9.6,79,0.00,,,0.00,WUHU216HW,2013-04-23 10:02:00,
2013-04-23 06:07:00,43.9,37.8,30.47,NE,45,5.6,9.6,79,0.00,,,0.00,WUHU216HW,2013-04-23 10:07:00,
2013-04-23 06:12:00,43.9,37.8,30.47,NE,45,5.6,9.6,79,0.00,,,0.00,WUHU216HW,2013-04-23 10:12:00,
2013-04-23 06:59:00,43.9,37.5,30.49,NNE,23,3.1,3.1,78,0.00,,,0.00,WUHU216HW,2013-04-23 10:59:00,
2013-04-23 07:04:00,43.9,37.5,30.49,NNE,23,4.9,4.9,78,0.00,,,0.00,WUHU216HW,2013-04-23 11:04:00,
2013-04-23 07:09:00,43.9,37.5,30.48,NNW,338,4.5,6.0,78,0.00,,,0.00,WUHU216HW,2013-04-23 11:09:00,
2013-04-23 07:14:00,43.9,37.5,30.48,NNW,338,5.6,7.2,78,0.00,,,0.00,WUHU216HW,2013-04-23 11:14:00,
2013-04-23 07:19:00,43.7,37.4,30.48,ENE,68,6.3,7.2,78,0.00,,,0.00,WUHU216HW,2013-04-23 11:19:00,
2013-04-23 07:24:00,43.7,37.4,30.48,ENE,68,5.8,11.0,78,0.00,,,0.00,WUHU216HW,2013-04-23 11:24:00,
2013-04-23 07:29:00,43.7,37.4,30.48,NE,45,8.5,11.0,78,0.00,,,0.00,WUHU216HW,2013-04-23 11:29:00,
2013-04-23 07:34:00,43.6,37.2,30.48,NNE,23,9.2,9.4,78,0.00,,,0.00,WUHU216HW,2013-04-23 11:34:00,
2013-04-23 07:39:00,43.6,37.4,30.48,NNE,23,6.5,9.4,79,0.00,,,0.00,WUHU216HW,2013-04-23 11:39:00,
2013-04-23 07:44:00,43.6,37.2,30.48,NE,45,6.3,7.6,78,0.00,,,0.00,WUHU216HW,2013-04-23 11:44:00,
2013-04-23 07:50:00,43.7,37.6,30.47,North,0,6.3,9.8,79,0.00,,,0.00,WUHU216HW,2013-04-23 11:50:00,
2013-04-23 07:55:00,43.9,37.5,30.48,NE,45,6.0,9.8,78,0.00,,,0.00,WUHU216HW,2013-04-23 11:55:00,
2013-04-23 08:00:00,43.9,37.5,30.48,North,0,8.9,9.2,78,0.00,,,0.00,WUHU216HW,2013-04-23 12:00:00,
2013-04-23 08:05:00,43.9,37.5,30.48,NE,45,2.5,9.2,78,0.00,,,0.00,WUHU216HW,2013-04-23 12:05:00,
2013-04-23 08:10:00,44.1,37.7,30.48,ENE,68,7.6,9.8,78,0.00,,,0.00,WUHU216HW,2013-04-23 12:10:00,
2013-04-23 08:15:00,44.3,37.8,30.47,North,0,3.8,9.8,78,0.00,,,0.00,WUHU216HW,2013-04-23 12:15:00,
2013-04-23 08:20:00,44.3,37.8,30.47,NE,45,5.6,8.7,78,0.00,,,0.00,WUHU216HW,2013-04-23 12:20:00,
2013-04-23 08:25:00,44.3,37.8,30.47,NNE,23,6.7,8.7,78,0.00,,,0.00,WUHU216HW,2013-04-23 12:25:00,
2013-04-23 08:30:00,44.3,37.8,30.47,NNE,23,2.9,7.6,78,0.00,,,0.00,WUHU216HW,2013-04-23 12:30:00,
2013-04-23 08:35:00,44.3,37.8,30.47,NNE,23,3.4,11.2,78,0.00,,,0.00,WUHU216HW,2013-04-23 12:35:00,
2013-04-23 08:40:00,44.3,37.8,30.47,NNE,23,6.9,11.2,78,0.00,,,0.00,WUHU216HW,2013-04-23 12:40:00,
2013-04-23 08:45:00,44.3,37.8,30.47,NNE,23,5.1,8.9,78,0.00,,,0.00,WUHU216HW,2013-04-23 12:45:00,
2013-04-23 08:50:00,44.3,37.8,30.47,East,90,2.9,8.9,78,0.00,,,0.00,WUHU216HW,2013-04-23 12:50:00,
2013-04-23 08:55:00,44.3,38.2,30.47,NE,45,4.3,5.1,79,0.00,,,0.00,WUHU216HW,2013-04-23 12:55:00,
2013-04-23 09:00:00,44.1,38.0,30.47,ENE,68,2.7,8.9,79,0.00,,,0.00,WUHU216HW,2013-04-23 13:00:00,
2013-04-23 09:05:00,44.1,38.0,30.47,NNE,23,4.7,8.9,79,0.00,,,0.00,WUHU216HW,2013-04-23 13:05:00,
2013-04-23 09:10:00,44.1,38.0,30.46,NE,45,5.6,7.4,79,0.00,,,0.00,WUHU216HW,2013-04-23 13:10:00,
2013-04-23 09:15:00,44.1,38.3,30.46,North,0,1.6,5.6,80,0.00,,,0.00,WUHU216HW,2013-04-23 13:15:00,
2013-04-23 09:20:00,43.9,38.4,30.46,NNW,338,3.4,7.8,81,0.00,,,0.00,WUHU216HW,2013-04-23 13:20:00,
2013-04-23 09:25:00,43.9,38.4,30.47,NNE,23,5.1,7.8,81,0.00,,,0.00,WUHU216HW,2013-04-23 13:25:00,
2013-04-23 09:30:00,43.9,38.4,30.47,NNW,338,8.1,8.1,81,0.00,,,0.00,WUHU216HW,2013-04-23 13:30:00,
2013-04-23 09:35:00,43.9,38.4,30.46,NNE,23,2.5,8.1,81,0.00,,,0.00,WUHU216HW,2013-04-23 13:35:00,
2013-04-23 09:40:00,44.1,39.0,30.46,ENE,68,6.7,8.1,82,0.00,,,0.00,WUHU216HW,2013-04-23 13:40:00,
2013-04-23 09:45:00,44.1,39.0,30.46,NNE,23,8.1,8.1,82,0.00,,,0.00,WUHU216HW,2013-04-23 13:45:00,
2013-04-23 09:50:00,43.9,39.1,30.46,North,0,2.9,8.1,83,0.00,,,0.00,WUHU216HW,2013-04-23 13:50:00,
2013-04-23 09:55:00,43.9,39.1,30.46,North,0,4.5,7.2,83,0.00,,,0.00,WUHU216HW,2013-04-23 13:55:00,
2013-04-23 10:00:00,43.9,39.1,30.46,NNE,23,2.0,7.2,83,0.00,,,0.00,WUHU216HW,2013-04-23 14:00:00,
2013-04-23 10:05:00,43.9,39.1,30.46,North,0,6.0,6.3,83,0.00,,,0.00,WUHU216HW,2013-04-23 14:05:00,
2013-04-23 10:10:00,43.9,39.1,30.46,NNE,23,5.1,6.3,83,0.00,,,0.00,WUHU216HW,2013-04-23 14:10:00,
2013-04-23 10:15:00,43.7,38.9,30.46,NNE,23,7.2,9.4,83,0.00,,,0.00,WUHU216HW,2013-04-23 14:15:00,
2013-04-23 10:20:00,43.7,39.3,30.45,ENE,68,3.4,9.4,84,0.00,,,0.00,WUHU216HW,2013-04-23 14:20:00,
2013-04-23 10:25:00,43.7,39.3,30.45,ENE,68,2.5,7.2,84,0.00,,,0.00,WUHU216HW,2013-04-23 14:25:00,
2013-04-23 10:30:00,43.7,39.3,30.45,NNE,23,6.5,7.2,84,0.00,,,0.00,WUHU216HW,2013-04-23 14:30:00,
2013-04-23 10:35:00,43.7,39.3,30.45,East,90,2.5,6.7,84,0.00,,,0.00,WUHU216HW,2013-04-23 14:35:00,
2013-04-23 10:40:00,43.6,39.1,30.45,North,0,3.6,6.7,84,0.00,,,0.00,WUHU216HW,2013-04-23 14:40:00,
2013-04-23 10:45:00,43.7,39.3,30.45,NNE,23,7.6,7.6,84,0.00,,,0.00,WUHU216HW,2013-04-23 14:45:00,
2013-04-23 10:50:00,43.7,39.5,30.44,North,0,1.3,7.6,85,0.00,,,0.00,WUHU216HW,2013-04-23 14:50:00,
2013-04-23 10:55:00,43.7,39.5,30.45,NNE,23,2.5,7.2,85,0.00,,,0.00,WUHU216HW,2013-04-23 14:55:00,
2013-04-23 11:00:00,43.6,39.3,30.44,NE,45,6.9,6.9,85,0.00,,,0.00,WUHU216HW,2013-04-23 15:00:00,
2013-04-23 11:05:00,43.6,39.3,30.44,North,0,4.0,6.9,85,0.00,,,0.00,WUHU216HW,2013-04-23 15:05:00,
2013-04-23 11:10:00,43.6,39.3,30.44,North,0,2.9,5.1,85,0.00,,,0.00,WUHU216HW,2013-04-23 15:10:00,
2013-04-23 11:15:00,43.6,39.3,30.44,NNE,23,2.0,5.1,85,0.00,,,0.00,WUHU216HW,2013-04-23 15:15:00,
2013-04-23 11:20:00,43.6,39.3,30.44,NW,315,2.5,6.9,85,0.00,,,0.00,WUHU216HW,2013-04-23 15:20:00,
2013-04-23 11:25:00,43.7,39.5,30.44,NE,45,4.3,6.9,85,0.00,,,0.00,WUHU216HW,2013-04-23 15:25:00,
2013-04-23 11:30:00,43.7,39.5,30.44,North,0,4.7,8.3,85,0.00,,,0.00,WUHU216HW,2013-04-23 15:30:00,
2013-04-23 11:35:00,43.9,39.7,30.43,ENE,68,4.3,8.3,85,0.00,,,0.00,WUHU216HW,2013-04-23 15:35:00,
2013-04-23 11:40:00,43.9,39.7,30.43,North,0,2.9,6.9,85,0.00,,,0.00,WUHU216HW,2013-04-23 15:40:00,
2013-04-23 11:45:00,43.9,39.7,30.43,NNE,23,2.0,6.3,85,0.00,,,0.00,WUHU216HW,2013-04-23 15:45:00,
2013-04-23 11:50:00,43.9,40.0,30.43,North,0,2.7,4.5,86,0.00,,,0.00,WUHU216HW,2013-04-23 15:50:00,
2013-04-23 11:55:00,44.1,40.1,30.43,NNE,23,3.8,4.5,86,0.00,,,0.00,WUHU216HW,2013-04-23 15:55:00,
2013-04-23 12:00:00,44.1,40.1,30.42,NNE,23,4.0,4.0,86,0.00,,,0.00,WUHU216HW,2013-04-23 16:00:00,
2013-04-23 12:05:00,44.1,40.1,30.42,NE,45,4.7,4.7,86,0.00,,,0.00,WUHU216HW,2013-04-23 16:05:00,
2013-04-23 12:10:00,44.1,40.1,30.41,NE,45,4.0,5.6,86,0.00,,,0.00,WUHU216HW,2013-04-23 16:10:00,
2013-04-23 12:15:00,44.1,40.1,30.41,NNE,23,4.7,6.0,86,0.00,,,0.00,WUHU216HW,2013-04-23 16:15:00,
2013-04-23 12:20:00,44.1,40.1,30.41,NE,45,2.9,6.0,86,0.00,,,0.00,WUHU216HW,2013-04-23 16:20:00,
2013-04-23 12:25:00,44.3,40.3,30.41,NE,45,4.7,7.4,86,0.00,,,0.00,WUHU216HW,2013-04-23 16:25:00,
2013-04-23 12:30:00,44.1,40.1,30.41,NW,315,1.8,7.4,86,0.00,,,0.00,WUHU216HW,2013-04-23 16:30:00,
2013-04-23 12:35:00,44.1,40.1,30.40,NNE,23,3.4,3.4,86,0.00,,,0.00,WUHU216HW,2013-04-23 16:35:00,
2013-04-23 12:40:00,44.1,40.1,30.40,NW,315,1.8,6.0,86,0.00,,,0.00,WUHU216HW,2013-04-23 16:40:00,
2013-04-23 12:45:00,44.1,40.1,30.40,North,0,1.1,6.0,86,0.00,,,0.00,WUHU216HW,2013-04-23 16:45:00,
2013-04-23 12:50:00,44.3,40.3,30.40,NE,45,4.7,7.6,86,0.00,,,0.00,WUHU216HW,2013-04-23 16:50:00,
2013-04-23 12:55:00,44.3,40.3,30.39,North,0,3.4,7.6,86,0.00,,,0.00,WUHU216HW,2013-04-23 16:55:00,
2013-04-23 13:00:00,44.5,40.5,30.38,North,0,2.5,4.9,86,0.00,,,0.00,WUHU216HW,2013-04-23 17:00:00,
2013-04-23 13:05:00,44.5,40.5,30.38,NNW,338,3.6,4.9,86,0.00,,,0.00,WUHU216HW,2013-04-23 17:05:00,
2013-04-23 13:10:00,44.6,40.7,30.38,ENE,68,9.6,9.6,86,0.00,,,0.00,WUHU216HW,2013-04-23 17:10:00,
2013-04-23 13:16:00,44.5,40.5,30.37,North,0,4.7,9.6,86,0.00,,,0.00,WUHU216HW,2013-04-23 17:16:00,
2013-04-23 13:21:00,44.8,40.9,30.37,North,0,3.4,7.8,86,0.00,,,0.00,WUHU216HW,2013-04-23 17:21:00,
2013-04-23 13:26:00,44.8,40.9,30.37,North,0,4.3,11.2,86,0.00,,,0.00,WUHU216HW,2013-04-23 17:26:00,
2013-04-23 13:31:00,45.0,41.0,30.36,NNE,23,5.4,11.2,86,0.00,,,0.00,WUHU216HW,2013-04-23 17:31:00,
2013-04-23 13:36:00,45.4,41.1,30.36,North,0,4.0,6.3,85,0.00,,,0.00,WUHU216HW,2013-04-23 17:36:00,
2013-04-23 13:41:00,45.7,41.5,30.36,North,0,4.9,6.3,85,0.00,,,0.00,WUHU216HW,2013-04-23 17:41:00,
2013-04-23 13:46:00,45.7,41.5,30.36,NNE,23,7.6,7.6,85,0.00,,,0.00,WUHU216HW,2013-04-23 17:46:00,
2013-04-23 13:51:00,45.9,41.7,30.36,NE,45,6.5,7.6,85,0.00,,,0.00,WUHU216HW,2013-04-23 17:51:00,
2013-04-23 13:56:00,46.3,41.8,30.36,North,0,6.3,8.7,84,0.00,,,0.00,WUHU216HW,2013-04-23 17:56:00,
2013-04-23 14:01:00,46.3,41.8,30.35,North,0,4.5,8.7,84,0.00,,,0.00,WUHU216HW,2013-04-23 18:01:00,
2013-04-23 14:06:00,46.4,42.0,30.35,NNE,23,4.7,6.9,84,0.00,,,0.00,WUHU216HW,2013-04-23 18:06:00,
2013-04-23 14:11:00,46.6,42.0,30.35,NE,45,5.4,7.2,84,0.00,,,0.00,WUHU216HW,2013-04-23 18:11:00,
2013-04-23 14:16:00,47.0,42.1,30.35,North,0,7.6,7.6,83,0.00,,,0.00,WUHU216HW,2013-04-23 18:16:00,
2013-04-23 14:21:00,47.2,42.3,30.34,NE,45,5.1,8.3,83,0.00,,,0.00,WUHU216HW,2013-04-23 18:21:00,
2013-04-23 14:31:00,47.2,41.9,30.34,NE,45,4.7,4.7,82,0.00,,,0.00,WUHU216HW,2013-04-23 18:31:00,
2013-04-23 14:36:00,47.3,42.1,30.34,NNE,23,6.7,6.9,82,0.00,,,0.00,WUHU216HW,2013-04-23 18:36:00,
2013-04-23 14:41:00,47.5,42.3,30.34,North,0,4.0,6.9,82,0.00,,,0.00,WUHU216HW,2013-04-23 18:41:00,
2013-04-23 14:46:00,47.5,42.3,30.34,ESE,113,5.6,5.6,82,0.00,,,0.00,WUHU216HW,2013-04-23 18:46:00,
2013-04-23 14:51:00,47.5,41.9,30.34,WNW,293,2.5,5.6,81,0.00,,,0.00,WUHU216HW,2013-04-23 18:51:00,
2013-04-23 14:56:00,47.5,41.9,30.33,ESE,113,1.8,8.1,81,0.00,,,0.00,WUHU216HW,2013-04-23 18:56:00,
2013-04-23 15:01:00,47.9,42.3,30.33,North,0,7.8,8.1,81,0.00,,,0.00,WUHU216HW,2013-04-23 19:01:00,
2013-04-23 15:06:00,47.9,42.3,30.33,NNW,338,4.9,7.8,81,0.00,,,0.00,WUHU216HW,2013-04-23 19:06:00,
2013-04-23 15:11:00,48.2,42.3,30.33,North,0,3.4,4.9,80,0.00,,,0.00,WUHU216HW,2013-04-23 19:11:00,
2013-04-23 15:16:00,48.2,42.3,30.33,NE,45,3.4,6.5,80,0.00,,,0.00,WUHU216HW,2013-04-23 19:16:00,
2013-04-23 15:21:00,48.4,42.9,30.33,NNW,338,4.9,6.5,81,0.00,,,0.00,WUHU216HW,2013-04-23 19:21:00,
2013-04-23 15:26:00,48.4,42.9,30.33,North,0,3.8,5.1,81,0.00,,,0.00,WUHU216HW,2013-04-23 19:26:00,
2013-04-23 15:31:00,48.4,42.5,30.33,NNW,338,5.6,7.4,80,0.00,,,0.00,WUHU216HW,2013-04-23 19:31:00,
2013-04-23 15:36:00,48.2,42.3,30.33,NW,315,2.2,7.4,80,0.00,,,0.00,WUHU216HW,2013-04-23 19:36:00,
2013-04-23 15:41:00,48.4,42.9,30.33,North,0,4.0,4.7,81,0.00,,,0.00,WUHU216HW,2013-04-23 19:41:00,
2013-04-23 15:46:00,48.2,42.3,30.33,North,0,2.5,4.7,80,0.00,,,0.00,WUHU216HW,2013-04-23 19:46:00,
2013-04-23 15:51:00,48.2,42.3,30.33,NNW,338,3.4,4.0,80,0.00,,,0.00,WUHU216HW,2013-04-23 19:51:00,
2013-04-23 15:56:00,48.2,42.3,30.33,North,0,6.5,6.5,80,0.00,,,0.00,WUHU216HW,2013-04-23 19:56:00,
2013-04-23 16:01:00,48.2,42.3,30.33,NW,315,3.1,6.7,80,0.00,,,0.00,WUHU216HW,2013-04-23 20:01:00,
2013-04-23 16:06:00,48.2,42.3,30.33,North,0,4.7,6.7,80,0.00,,,0.00,WUHU216HW,2013-04-23 20:06:00,
2013-04-23 16:11:00,48.6,43.0,30.33,North,0,3.1,6.3,81,0.00,,,0.00,WUHU216HW,2013-04-23 20:11:00,
2013-04-23 16:16:00,48.8,42.8,30.32,North,0,2.5,4.9,80,0.00,,,0.00,WUHU216HW,2013-04-23 20:16:00,
2013-04-23 16:21:00,48.8,42.8,30.32,North,0,2.9,4.9,80,0.00,,,0.00,WUHU216HW,2013-04-23 20:21:00,
2013-04-23 16:26:00,49.0,43.0,30.33,North,0,2.5,2.9,80,0.00,,,0.00,WUHU216HW,2013-04-23 20:26:00,
2013-04-23 16:31:00,49.0,42.7,30.32,NNW,338,2.7,5.4,79,0.00,,,0.00,WUHU216HW,2013-04-23 20:31:00,
2013-04-23 16:43:00,49.0,42.7,30.33,NNW,338,3.8,3.8,79,0.00,,,0.00,WUHU216HW,2013-04-23 20:43:00,
2013-04-23 16:48:00,49.0,42.7,30.33,NW,315,2.2,3.8,79,0.00,,,0.00,WUHU216HW,2013-04-23 20:48:00,
2013-04-23 16:53:00,48.8,42.5,30.33,NW,315,2.2,3.8,79,0.00,,,0.00,WUHU216HW,2013-04-23 20:53:00,
2013-04-23 16:58:00,49.0,42.7,30.33,NNW,338,4.5,4.5,79,0.00,,,0.00,WUHU216HW,2013-04-23 20:58:00,
2013-04-23 17:03:00,49.0,42.7,30.33,NNW,338,2.5,4.5,79,0.00,,,0.00,WUHU216HW,2013-04-23 21:03:00,
2013-04-23 17:08:00,49.0,42.3,30.33,NW,315,2.5,5.4,78,0.00,,,0.00,WUHU216HW,2013-04-23 21:08:00,
2013-04-23 17:13:00,49.0,42.3,30.32,West,270,2.5,5.4,78,0.00,,,0.00,WUHU216HW,2013-04-23 21:13:00,
2013-04-23 17:18:00,49.1,42.5,30.32,NNW,338,3.6,4.0,78,0.00,,,0.00,WUHU216HW,2013-04-23 21:18:00,
2013-04-23 17:23:00,49.3,42.7,30.31,NW,315,0.4,4.0,78,0.00,,,0.00,WUHU216HW,2013-04-23 21:23:00,
2013-04-23 17:28:00,49.3,42.7,30.31,NW,315,3.1,6.7,78,0.00,,,0.00,WUHU216HW,2013-04-23 21:28:00,
2013-04-23 17:33:00,49.7,43.0,30.31,North,0,1.6,6.7,78,0.00,,,0.00,WUHU216HW,2013-04-23 21:33:00,
2013-04-23 17:38:00,49.7,43.0,30.31,NNW,338,4.3,4.9,78,0.00,,,0.00,WUHU216HW,2013-04-23 21:38:00,
2013-04-23 17:43:00,49.7,42.8,30.31,North,0,4.0,4.3,77,0.00,,,0.00,WUHU216HW,2013-04-23 21:43:00,
2013-04-23 17:48:00,49.9,42.9,30.31,North,0,5.8,5.8,77,0.00,,,0.00,WUHU216HW,2013-04-23 21:48:00,
2013-04-23 17:53:00,49.9,42.9,30.30,NNW,338,4.0,5.8,77,0.00,,,0.00,WUHU216HW,2013-04-23 21:53:00,
2013-04-23 17:58:00,50.2,43.3,30.30,North,0,3.4,5.8,77,0.00,,,0.00,WUHU216HW,2013-04-23 21:58:00,
2013-04-23 18:03:00,50.4,43.5,30.30,NW,315,3.4,4.5,77,0.00,,,0.00,WUHU216HW,2013-04-23 22:03:00,
2013-04-23 18:08:00,50.4,43.1,30.30,NNW,338,3.6,4.5,76,0.00,,,0.00,WUHU216HW,2013-04-23 22:08:00,
2013-04-23 18:13:00,50.6,43.3,30.30,North,0,2.5,6.5,76,0.00,,,0.00,WUHU216HW,2013-04-23 22:13:00,
2013-04-23 18:18:00,50.8,43.8,30.29,North,0,1.8,6.5,77,0.00,,,0.00,WUHU216HW,2013-04-23 22:18:00,
2013-04-23 18:23:00,50.8,43.8,30.29,North,0,3.4,4.7,77,0.00,,,0.00,WUHU216HW,2013-04-23 22:23:00,
2013-04-23 18:28:00,50.8,43.5,30.29,NNW,338,3.4,4.0,76,0.00,,,0.00,WUHU216HW,2013-04-23 22:28:00,
2013-04-23 18:33:00,50.8,43.5,30.29,North,0,2.7,4.0,76,0.00,,,0.00,WUHU216HW,2013-04-23 22:33:00,
2013-04-23 18:38:00,50.9,43.7,30.29,North,0,4.0,4.0,76,0.00,,,0.00,WUHU216HW,2013-04-23 22:38:00,
2013-04-23 18:43:00,50.9,43.7,30.29,North,0,5.4,5.4,76,0.00,,,0.00,WUHU216HW,2013-04-23 22:43:00,
2013-04-23 18:48:00,50.8,43.5,30.29,NNW,338,1.8,5.4,76,0.00,,,0.00,WUHU216HW,2013-04-23 22:48:00,
2013-04-23 18:53:00,50.8,43.5,30.28,North,0,3.4,5.4,76,0.00,,,0.00,WUHU216HW,2013-04-23 22:53:00,
2013-04-23 18:58:00,50.8,43.5,30.28,North,0,3.4,4.5,76,0.00,,,0.00,WUHU216HW,2013-04-23 22:58:00,
2013-04-23 19:03:00,50.8,43.5,30.28,NNW,338,3.4,3.4,76,0.00,,,0.00,WUHU216HW,2013-04-23 23:03:00,
2013-04-23 19:08:00,50.8,43.5,30.28,North,0,1.1,3.4,76,0.00,,,0.00,WUHU216HW,2013-04-23 23:08:00,
2013-04-23 19:13:00,50.8,43.5,30.27,NNW,338,3.1,3.4,76,0.00,,,0.00,WUHU216HW,2013-04-23 23:13:00,
2013-04-23 19:18:00,50.8,43.5,30.28,NNW,338,2.9,4.0,76,0.00,,,0.00,WUHU216HW,2013-04-23 23:18:00,
2013-04-23 19:23:00,50.6,43.3,30.27,North,0,3.4,4.0,76,0.00,,,0.00,WUHU216HW,2013-04-23 23:23:00,
2013-04-23 19:30:00,50.6,43.3,30.27,North,0,3.1,3.4,76,0.00,,,0.00,WUHU216HW,2013-04-23 23:30:00,
2013-04-23 19:35:00,50.6,43.3,30.27,NNW,338,2.9,3.1,76,0.00,,,0.00,WUHU216HW,2013-04-23 23:35:00,
2013-04-23 19:40:00,50.4,43.1,30.27,North,0,2.7,2.9,76,0.00,,,0.00,WUHU216HW,2013-04-23 23:40:00,
2013-04-23 19:45:00,50.4,43.1,30.27,North,0,1.8,3.4,76,0.00,,,0.00,WUHU216HW,2013-04-23 23:45:00,
2013-04-23 19:50:00,50.4,43.1,30.26,NNW,338,3.6,3.6,76,0.00,,,0.00,WUHU216HW,2013-04-23 23:50:00,
2013-04-23 19:55:00,50.2,42.9,30.27,NW,315,1.1,3.6,76,0.00,,,0.00,WUHU216HW,2013-04-23 23:55:00,
2013-04-23 20:00:00,50.2,42.9,30.27,North,0,1.8,4.3,76,0.00,,,0.00,WUHU216HW,2013-04-24 00:00:00,
2013-04-23 20:05:00,50.2,42.9,30.26,NNW,338,1.8,4.3,76,0.00,,,0.00,WUHU216HW,2013-04-24 00:05:00,
2013-04-23 20:10:00,50.2,42.9,30.26,NNW,338,1.6,2.5,76,0.00,,,0.00,WUHU216HW,2013-04-24 00:10:00,
2013-04-23 20:15:00,50.2,42.9,30.25,East,90,0.9,2.5,76,0.00,,,0.00,WUHU216HW,2013-04-24 00:15:00,
2013-04-23 20:20:00,50.2,42.9,30.25,North,0,3.4,3.4,76,0.00,,,0.00,WUHU216HW,2013-04-24 00:20:00,
2013-04-23 20:25:00,50.2,42.9,30.25,North,0,1.6,3.4,76,0.00,,,0.00,WUHU216HW,2013-04-24 00:25:00,
2013-04-23 20:30:00,50.0,42.8,30.25,NNE,23,0.9,2.9,76,0.00,,,0.00,WUHU216HW,2013-04-24 00:30:00,
2013-04-23 20:35:00,50.0,42.8,30.25,NNW,338,2.9,2.9,76,0.00,,,0.00,WUHU216HW,2013-04-24 00:35:00,
2013-04-23 20:40:00,50.0,42.8,30.25,North,0,1.1,2.9,76,0.00,,,0.00,WUHU216HW,2013-04-24 00:40:00,
2013-04-23 20:45:00,50.0,42.8,30.25,North,0,1.1,1.8,76,0.00,,,0.00,WUHU216HW,2013-04-24 00:45:00,
2013-04-23 20:50:00,50.0,42.8,30.25,North,0,4.0,4.0,76,0.00,,,0.00,WUHU216HW,2013-04-24 00:50:00,
2013-04-23 20:57:00,49.9,42.6,30.25,NE,45,1.3,4.0,76,0.00,,,0.00,WUHU216HW,2013-04-24 00:57:00,
2013-04-23 21:02:00,49.7,42.8,30.25,North,0,0.2,1.8,77,0.00,,,0.00,WUHU216HW,2013-04-24 01:02:00,
2013-04-23 21:07:00,49.5,42.6,30.26,NNW,338,0.7,1.8,77,0.00,,,0.00,WUHU216HW,2013-04-24 01:07:00,
2013-04-23 21:12:00,49.5,42.6,30.26,North,0,3.1,3.1,77,0.00,,,0.00,WUHU216HW,2013-04-24 01:12:00,
2013-04-23 21:17:00,49.5,42.8,30.26,NNW,338,1.1,3.1,78,0.00,,,0.00,WUHU216HW,2013-04-24 01:17:00,
2013-04-23 21:22:00,49.7,43.0,30.26,NNW,338,1.6,2.7,78,0.00,,,0.00,WUHU216HW,2013-04-24 01:22:00,
2013-04-23 21:27:00,49.7,43.0,30.26,NW,315,1.8,1.8,78,0.00,,,0.00,WUHU216HW,2013-04-24 01:27:00,
2013-04-23 21:32:00,49.9,43.2,30.26,NNW,338,2.2,2.2,78,0.00,,,0.00,WUHU216HW,2013-04-24 01:32:00,
2013-04-23 21:37:00,49.9,43.2,30.26,NNE,23,5.1,5.1,78,0.00,,,0.00,WUHU216HW,2013-04-24 01:37:00,
2013-04-23 21:42:00,49.9,42.9,30.26,NNW,338,2.2,5.1,77,0.00,,,0.00,WUHU216HW,2013-04-24 01:42:00,
2013-04-23 21:47:00,49.7,42.8,30.25,WNW,293,1.1,5.1,77,0.00,,,0.00,WUHU216HW,2013-04-24 01:47:00,
2013-04-23 21:52:00,49.7,42.8,30.26,NNW,338,1.1,2.2,77,0.00,,,0.00,WUHU216HW,2013-04-24 01:52:00,
2013-04-23 21:57:00,49.5,42.6,30.27,NW,315,1.6,1.8,77,0.00,,,0.00,WUHU216HW,2013-04-24 01:57:00,
2013-04-23 22:02:00,49.3,42.4,30.26,NNW,338,1.1,1.6,77,0.00,,,0.00,WUHU216HW,2013-04-24 02:02:00,
2013-04-23 22:07:00,49.3,42.7,30.26,NNW,338,1.3,1.3,78,0.00,,,0.00,WUHU216HW,2013-04-24 02:07:00,
2013-04-23 22:12:00,49.1,42.5,30.26,NW,315,1.1,1.3,78,0.00,,,0.00,WUHU216HW,2013-04-24 02:12:00,
2013-04-23 22:17:00,49.1,42.5,30.26,NW,315,0.7,1.3,78,0.00,,,0.00,WUHU216HW,2013-04-24 02:17:00,
2013-04-23 22:22:00,49.1,42.5,30.26,North,0,0.2,0.9,78,0.00,,,0.00,WUHU216HW,2013-04-24 02:22:00,
2013-04-23 22:27:00,49.0,42.3,30.25,NNW,338,0.4,0.9,78,0.00,,,0.00,WUHU216HW,2013-04-24 02:27:00,
2013-04-23 22:33:00,49.0,42.3,30.25,NNW,338,0.2,1.1,78,0.00,,,0.00,WUHU216HW,2013-04-24 02:33:00,
2013-04-23 22:38:00,49.0,42.3,30.25,North,0,1.1,1.1,78,0.00,,,0.00,WUHU216HW,2013-04-24 02:38:00,
2013-04-23 22:43:00,48.8,42.1,30.25,NNW,338,1.1,1.3,78,0.00,,,0.00,WUHU216HW,2013-04-24 02:43:00,
2013-04-23 22:48:00,48.6,41.9,30.25,NNW,338,0.2,1.3,78,0.00,,,0.00,WUHU216HW,2013-04-24 02:48:00,
2013-04-23 22:53:00,48.6,41.9,30.25,NW,315,1.8,1.8,78,0.00,,,0.00,WUHU216HW,2013-04-24 02:53:00,
2013-04-23 22:58:00,48.4,41.8,30.25,NW,315,1.8,2.0,78,0.00,,,0.00,WUHU216HW,2013-04-24 02:58:00,
2013-04-23 23:03:00,48.4,41.8,30.25,NNW,338,0.7,2.0,78,0.00,,,0.00,WUHU216HW,2013-04-24 03:03:00,
2013-04-23 23:09:00,48.4,41.8,30.25,NW,315,0.9,1.8,78,0.00,,,0.00,WUHU216HW,2013-04-24 03:09:00,
2013-04-23 23:14:00,48.4,41.8,30.25,NW,315,0.9,1.1,78,0.00,,,0.00,WUHU216HW,2013-04-24 03:14:00,
2013-04-23 23:19:00,48.2,41.6,30.24,NNW,338,0.4,1.1,78,0.00,,,0.00,WUHU216HW,2013-04-24 03:19:00,
2013-04-23 23:24:00,48.2,41.6,30.24,NNW,338,0.7,0.9,78,0.00,,,0.00,WUHU216HW,2013-04-24 03:24:00,
2013-04-23 23:30:00,48.1,41.5,30.24,NNW,338,0.9,0.9,78,0.00,,,0.00,WUHU216HW,2013-04-24 03:30:00,
2013-04-23 23:35:00,47.9,41.3,30.24,NNW,338,0.0,0.9,78,0.00,,,0.00,WUHU216HW,2013-04-24 03:35:00,
2013-04-23 23:40:00,47.7,41.5,30.24,NNW,338,0.0,0.4,79,0.00,,,0.00,WUHU216HW,2013-04-24 03:40:00,
2013-04-23 23:45:00,47.5,41.3,30.24,NNW,338,0.0,0.4,79,0.00,,,0.00,WUHU216HW,2013-04-24 03:45:00,
2013-04-23 23:50:00,47.3,41.1,30.24,NNW,338,0.0,0.4,79,0.00,,,0.00,WUHU216HW,2013-04-24 03:50:00,
2013-04-23 23:55:00,47.2,41.0,30.24,NNW,338,0.7,0.7,79,0.00,,,0.00,WUHU216HW,2013-04-24 03:55:00,